FENGYUN 1C DEB, 36226

Orbit data source: Space-Track

FENGYUN 1C DEB, 36226 is space debris in SSO originally from a launch on Mon, 10 May 1999 UTC launched from the Taiyaun Space Center, China (TSC). Fengyun 1C debris stems from the Chinese weather satellite Fengyun-1C, which was intentionally destroyed by a Chinese anti-satellite missile in 2007. This event dramatically increased the amount of space debris, with thousands of trackable fragments posing hazards to satellites and human spaceflight. The Fengyun 1C debris cloud has become a focal point in discussions about space sustainability and the need for international regulations to prevent the creation of new debris.

Loading next visibility...
Identifier
36226, 1999-025DVB
Orbit
SSO
Country
Flag of CNCN / PRC
Related business
Manufacturer
Unknown
Mission
Spacecraft
Bus & Motor
Unknown
Mass
Unknown
Launch date (UTC)
1999-05-10 (27 years ago)
Launch vehicle
Unknown
Launch site
Taiyaun Space Center, China (TSC)
Object type
Payload
Rocket body
Debris
Shape & HBR
Unknown shape, 0.1 m
Radar Cross Section
Small (<0.1 m²)

Expand to show TLE details & history
Last TLE update: 1 week ago

TLE from 1 week ago
0 FENGYUN 1C DEB
1 36226U 99025DVB 26254.32037620  .00001303  00000-0  71258-3 0  9999
2 36226  98.5915 290.2590 0093354 324.4310  35.0662 14.11451785676060
Epoch: 2026-09-11T07:41Z
TLE epoch observation values (Epoch: 2026-09-11T07:41:20.503Z)
Latitude
-0.00007°
Longitude
-175.42184°
Altitude
802.251 km
Speed
7.481 km/s
True Right ascension
19h 21m 02s
True Declination
0° 00' 00"
Sunlit
Object was in full shadow at epoch
Visualization orbit readout
Latitude
Unknown
Longitude
Unknown
Altitude
Unknown
Speed
Unknown
Apparent Right ascension
Unknown
Apparent Declination
Unknown
Sunlit
N/A
Visualization observer readout
Local Sidereal Time
00:00:34
Azimuth
Unknown
Elevation
Unknown
Doppler factor
Unknown
Orbital elements
Apogee altitude
919.064 km
Perigee altitude
784.08 km
Semi-major axis
7,229.709 km
Eccentricity
0.00934
Inclination
98.5915°
RAAN
290.259°
Arg. of periapsis
324.431°
True anomaly
35.68671°
Mean anomaly
35.0662°
Eccentric anomaly
35.37586°
Mean motion
3.53071 °/min
Orbital period
101.96 mins
BSTAR
0.00071258
Loading maneuver chart data...
Computing Atmospheric mass density...

Documentation

Showing up to 5 results
|